map of FLN home
Great Circle Mapper logo
FLN - Airport
Location
City:  Florianópolis, Santa Catarina, Brazil
Name:Hercílio Luz International Airport
ICAO / IATA:SBFL / FLN

Details
Type:Airport (Aerodrome, Airfield)
Use:Public/Civil, Military, International (customs port of entry)
Latitude:27°40'14"S (-27.670488)
Longitude:48°32'50"W (-48.547180)
Datum:WGS 1984
Elevation:20 ft (6 m)
Variation:19.01°W (WMM2015 magnetic declination)
-0.14° annual change
Runways:2
Longest:7546 × 148 ft (2300 × 45 m), paved

Time
Time Zone:UTC-3 (DST-2)
Local Time:

Weather
METAR:SBFL 310000Z 33006KT CAVOK 21/19 Q1016
TAF:SBFL 302130Z 3100/3124 33005KT CAVOK TN17/3108Z TX30/3117Z PROB30 3102/3107 26002KT 2000 BCFG BKN003
RMK PDW

Related Locations
Nearby:
Farthest:KKX: 12339 mi / 19857 km
Kikaiga Shima, Kikai-Shima Island, JP

Find:

   beyond  
but within

Other Information
Maps:
NOTAMs:
Links:
Sources:

  
flag of Brazil
flag of Santa Catarina
  

Sectional Chart

Flight Planning
at skyvector.com

Satellite Image

Google Maps Satellite view

 

Copyright © 2004-2015 Karl L. Swartz. All rights reserved.
The Great Circle Mapper name and logo are trademarks of the Great Circle Mapper.
All other trademarks mentioned herein belong to their respective owners.
Please see credits for attibutions and further copyright information.

  Follow gcmap on Facebook Follow gcmap on Twitter Follow gcmap on Google+

hCard Microformat

Geo Microformat